When you browse on this site, cookies collect data to enhance your experience and personalize the content and advertising you see.
Visit our Privacy Policy to learn more. By continuing to use the site, you agree to this use of cookies and data.
  • En España
  • Lista de países
  • Para 7 días
  • Temperatura del agua
  • Mapa Satelital
  • El tiempo en el mapa
  • Informadores
  • user-avatar
    Iniciar sesión

    Tiempo cada hora Wien

    Hoy, 19 Abril, Viernes

    Tiempo Temperatura Precipitaciones Viento Presión Humedad
    00:00 +11°C° 0 mm 1 mps 754 mmHg 66%
    01:00 +9°C° 0 mm 0 mps 754 mmHg 67%
    02:00 +9°C° 0 mm 0 mps 754 mmHg 69%
    03:00 +9°C° 0 mm 0 mps 754 mmHg 72%
    04:00 +8°C° 0 mm 0 mps 754 mmHg 74%
    05:00 +9°C° 0 mm 0 mps 754 mmHg 71%
    06:00 +10°C° 0 mm 0 mps 754 mmHg 69%
    07:00 +11°C° 0 mm 0 mps 754 mmHg 66%
    08:00 +14°C° 0 mm 1 mps 754 mmHg 61%
    09:00 +16°C° 0 mm 1 mps 754 mmHg 55%
    10:00 +19°C° 0 mm 1 mps 754 mmHg 50%
    11:00 +20°C° 0 mm 1 mps 754 mmHg 46%
    12:00 +20°C° 0 mm 2 mps 754 mmHg 43%
    13:00 +21°C° 0 mm 2 mps 753 mmHg 40%
    14:00 +21°C° 0 mm 2 mps 753 mmHg 40%
    15:00 +21°C° 0 mm 2 mps 753 mmHg 40%
    16:00 +21°C° 0 mm 2 mps 753 mmHg 40%
    17:00 +19°C° 0 mm 2 mps 753 mmHg 45%
    18:00 +18°C° 0 mm 2 mps 753 mmHg 50%
    19:00 +16°C° 0 mm 2 mps 753 mmHg 55%
    20:00 +15°C° 0 mm 2 mps 753 mmHg 57%
    21:00 +14°C° 0 mm 2 mps 753 mmHg 58%
    22:00 +13°C° 0 mm 2 mps 754 mmHg 59%
    23:00 +12°C° 0 mm 1 mps 754 mmHg 60%

    Mañana, 20 Abril, Sábado

    Tiempo Temperatura Precipitaciones Viento Presión Humedad
    00:00 +11°C° 0 mm 1 mps 754 mmHg 62%
    01:00 +11°C° 0 mm 1 mps 754 mmHg 64%
    02:00 +10°C° 0 mm 1 mps 754 mmHg 66%
    03:00 +10°C° 0 mm 1 mps 754 mmHg 68%
    04:00 +9°C° 0 mm 1 mps 754 mmHg 71%
    05:00 +10°C° 0 mm 1 mps 754 mmHg 69%
    06:00 +11°C° 0 mm 1 mps 754 mmHg 67%
    07:00 +12°C° 0 mm 1 mps 754 mmHg 64%
    08:00 +13°C° 0 mm 1 mps 754 mmHg 57%
    09:00 +15°C° 0 mm 2 mps 753 mmHg 50%
    10:00 +17°C° 0 mm 2 mps 753 mmHg 43%
    11:00 +18°C° 0 mm 2 mps 753 mmHg 40%
    12:00 +19°C° 0 mm 2 mps 752 mmHg 37%
    13:00 +20°C° 0 mm 2 mps 752 mmHg 34%
    14:00 +20°C° 0 mm 2 mps 752 mmHg 34%
    15:00 +20°C° 0 mm 2 mps 751 mmHg 34%
    16:00 +20°C° 0 mm 2 mps 751 mmHg 34%
    17:00 +18°C° 0 mm 2 mps 750 mmHg 39%
    18:00 +16°C° 0 mm 1 mps 750 mmHg 43%
    19:00 +15°C° 0 mm 1 mps 750 mmHg 47%
    20:00 +14°C° 0 mm 1 mps 750 mmHg 50%
    21:00 +13°C° 0 mm 1 mps 750 mmHg 53%
    22:00 +12°C° 0 mm 1 mps 750 mmHg 55%
    23:00 +12°C° 0 mm 1 mps 750 mmHg 58%

    Pasado mañana, 21 Abril, Domingo

    Tiempo Temperatura Precipitaciones Viento Presión Humedad
    00:00 +11°C° 0 mm 1 mps 750 mmHg 60%
    01:00 +10°C° 0 mm 0 mps 750 mmHg 62%
    02:00 +9°C° 0 mm 0 mps 749 mmHg 63%
    03:00 +10°C° 0 mm 1 mps 749 mmHg 64%
    04:00 +9°C° 0 mm 1 mps 749 mmHg 66%
    05:00 +10°C° 0 mm 1 mps 748 mmHg 64%
    06:00 +10°C° 0 mm 0 mps 748 mmHg 62%
    07:00 +11°C° 0 mm 0 mps 748 mmHg 60%
    08:00 +14°C° 0 mm 1 mps 748 mmHg 54%
    09:00 +16°C° 0 mm 1 mps 748 mmHg 49%
    10:00 +19°C° 0 mm 1 mps 747 mmHg 44%
    11:00 +19°C° 0 mm 2 mps 747 mmHg 41%
    12:00 +20°C° 0 mm 2 mps 747 mmHg 38%
    13:00 +21°C° 0 mm 2 mps 746 mmHg 35%
    14:00 +20°C° 0 mm 2 mps 746 mmHg 35%
    15:00 +20°C° 0 mm 2 mps 745 mmHg 36%
    16:00 +20°C° 0 mm 2 mps 745 mmHg 36%
    17:00 +19°C° 0 mm 2 mps 745 mmHg 40%
    18:00 +17°C° 0 mm 2 mps 745 mmHg 45%
    19:00 +15°C° 0 mm 2 mps 745 mmHg 49%
    20:00 +14°C° 0 mm 2 mps 745 mmHg 52%
    21:00 +14°C° 0 mm 2 mps 745 mmHg 54%
    22:00 +13°C° 0 mm 2 mps 745 mmHg 57%
    23:00 +12°C° 0 mm 2 mps 745 mmHg 59%

    22 Abril, Lunes

    Tiempo Temperatura Precipitaciones Viento Presión Humedad
    00:00 +12°C° 0 mm 2 mps 744 mmHg 62%
    01:00 +10°C° 0 mm 2 mps 744 mmHg 64%
    02:00 +10°C° 0 mm 2 mps 744 mmHg 66%
    03:00 +9°C° 0 mm 3 mps 743 mmHg 67%
    04:00 +9°C° 0 mm 3 mps 743 mmHg 69%
    05:00 +9°C° 0 mm 3 mps 743 mmHg 68%
    06:00 +10°C° 0 mm 4 mps 743 mmHg 67%
    07:00 +11°C° 0 mm 4 mps 742 mmHg 66%
    08:00 +13°C° 0 mm 5 mps 742 mmHg 59%
    09:00 +15°C° 0 mm 6 mps 742 mmHg 52%
    10:00 +17°C° 0 mm 6 mps 741 mmHg 46%
    11:00 +18°C° 0 mm 7 mps 741 mmHg 42%
    12:00 +20°C° 0 mm 7 mps 740 mmHg 39%
    13:00 +21°C° 0 mm 8 mps 740 mmHg 35%
    14:00 +21°C° 0 mm 7 mps 740 mmHg 37%
    15:00 +21°C° 0 mm 7 mps 739 mmHg 39%
    16:00 +21°C° 0 mm 7 mps 738 mmHg 40%
    17:00 +19°C° 0 mm 6 mps 738 mmHg 46%
    18:00 +17°C° 0 mm 6 mps 738 mmHg 51%
    19:00 +16°C° 0 mm 5 mps 738 mmHg 57%
    20:00 +16°C° 0 mm 6 mps 738 mmHg 58%
    21:00 +15°C° 0 mm 6 mps 738 mmHg 59%
    22:00 +15°C° 0 mm 6 mps 738 mmHg 59%
    23:00 +15°C° 0 mm 6 mps 738 mmHg 62%

    23 Abril, Martes

    Tiempo Temperatura Precipitaciones Viento Presión Humedad
    00:00 +14°C° 0 mm 6 mps 738 mmHg 65%
    01:00 +14°C° 0 mm 6 mps 738 mmHg 68%
    02:00 +14°C° 0 mm 7 mps 738 mmHg 68%
    03:00 +12°C° 0 mm 7 mps 738 mmHg 67%
    04:00 +12°C° 0 mm 8 mps 738 mmHg 66%
    05:00 +12°C° 0.1 mm 8 mps 738 mmHg 72%
    06:00 +11°C° 0.1 mm 8 mps 738 mmHg 77%
    07:00 +11°C° 0.1 mm 8 mps 738 mmHg 82%
    08:00 +11°C° 0.1 mm 8 mps 738 mmHg 82%
    09:00 +11°C° 0.1 mm 8 mps 738 mmHg 82%
    10:00 +11°C° 0.1 mm 9 mps 739 mmHg 82%
    11:00 +12°C° 0 mm 8 mps 739 mmHg 79%
    12:00 +12°C° 0 mm 8 mps 738 mmHg 76%
    13:00 +12°C° 0 mm 8 mps 738 mmHg 74%
    14:00 +13°C° 0 mm 8 mps 738 mmHg 72%
    15:00 +15°C° 0 mm 8 mps 738 mmHg 70%
    16:00 +16°C° 0 mm 8 mps 738 mmHg 69%
    17:00 +15°C° 0.6 mm 8 mps 738 mmHg 72%
    18:00 +14°C° 0.6 mm 7 mps 738 mmHg 76%
    19:00 +12°C° 0.6 mm 7 mps 738 mmHg 80%
    20:00 +12°C° 0.2 mm 7 mps 739 mmHg 79%
    21:00 +12°C° 0.2 mm 7 mps 739 mmHg 79%
    22:00 +12°C° 0.2 mm 8 mps 739 mmHg 78%
    23:00 +12°C° 0 mm 7 mps 739 mmHg 80%

    24 Abril, Miércoles

    Tiempo Temperatura Precipitaciones Viento Presión Humedad
    00:00 +11°C° 0 mm 6 mps 739 mmHg 82%
    01:00 +11°C° 0 mm 6 mps 739 mmHg 84%
    02:00 +10°C° 0 mm 6 mps 739 mmHg 85%
    03:00 +10°C° 0 mm 6 mps 740 mmHg 86%
    04:00 +10°C° 0 mm 6 mps 740 mmHg 87%
    05:00 +10°C° 0 mm 5 mps 740 mmHg 86%
    06:00 +12°C° 0 mm 5 mps 741 mmHg 86%
    07:00 +12°C° 0 mm 5 mps 741 mmHg 86%
    08:00 +13°C° 0 mm 5 mps 742 mmHg 85%
    09:00 +13°C° 0 mm 5 mps 742 mmHg 84%
    10:00 +14°C° 0 mm 5 mps 743 mmHg 83%
    11:00 +14°C° 0 mm 5 mps 743 mmHg 80%
    12:00 +15°C° 0 mm 5 mps 743 mmHg 78%
    13:00 +16°C° 0 mm 5 mps 743 mmHg 75%
    14:00 +16°C° 0 mm 5 mps 743 mmHg 74%
    15:00 +17°C° 0 mm 5 mps 743 mmHg 73%
    16:00 +17°C° 0 mm 5 mps 743 mmHg 72%
    17:00 +17°C° 0 mm 5 mps 743 mmHg 75%
    18:00 +16°C° 0 mm 5 mps 743 mmHg 78%
    19:00 +17°C° 0 mm 4 mps 743 mmHg 81%
    20:00 +15°C° 0 mm 4 mps 744 mmHg 83%
    21:00 +14°C° 0 mm 4 mps 744 mmHg 85%
    22:00 +14°C° 0 mm 4 mps 744 mmHg 87%
    23:00 +13°C° 0 mm 4 mps 744 mmHg 89%
    Mostrar más